This demonstration page uses our WeatherBlox Daily Observations layout. Learn more.

Hourly Observations for December 28, 2017

Temp ( °F °C ) Dew Point ( °F °C ) Humidity (%) Winds ( mph kmh ) Pressure ( in mb ) Visibility ( mi km ) Precip ( " mm )
12:15 am 00:15 Cloudy 14 -9.9 7 -13.9 73 73 S 13 20 30.42 1030 10 16.09344 0 0
12:35 am 00:35 Mostly Cloudy 14 -9.8 7 -14 72 72 SSE 10 17 30.42 1030 10 16.09344 0 0
12:55 am 00:55 Cloudy 15 -9.6 8 -13.6 73 73 S 10 17 30.39 1029 10 16.09344 0 0
1:15 am 01:15 Cloudy 15 -9.4 8 -13.3 74 74 S 12 19 30.39 1029 10 16.09344 0 0
1:35 am 01:35 Cloudy 16 -9.1 8 -13.4 71 71 S 10 17 30.36 1028 10 16.09344 0 0
1:55 am 01:55 Mostly Cloudy 16 -9 8 -13.1 72 72 S 13 20 30.36 1028 10 16.09344 0 0
2:15 am 02:15 Partly Cloudy 15 -9.3 8 -13.5 72 72 S 9 15 30.33 1027 10 16.09344 0 0
2:35 am 02:35 Clear 14 -10 7 -13.7 75 75 S 7 11 30.36 1028 10 16.09344 0 0
2:55 am 02:55 Clear 14 -10.2 7 -13.9 75 75 Calm 30.36 1028 10 16.09344 0 0
3:15 am 03:15 Clear 14 -10 7 -14 73 73 Calm 30.39 1029 10 16.09344 0 0
3:35 am 03:35 Clear 14 -10.2 7 -13.9 75 75 SE 3 6 30.39 1029 10 16.09344 0 0
3:55 am 03:55 Mostly Cloudy 11 -11.8 5 -15.1 77 77 E 3 6 30.39 1029 10 16.09344 0 0
4:15 am 04:15 Mostly Cloudy 10 -12.3 5 -15.2 79 79 ESE 5 7 30.42 1030 10 16.09344 0 0
4:35 am 04:35 Partly Cloudy 11 -11.4 6 -14.3 79 79 SE 5 7 30.39 1029 10 16.09344 0 0
4:55 am 04:55 Clear 8 -13.1 4 -15.8 80 80 NE 7 11 30.42 1030 10 16.09344 0 0
5:15 am 05:15 Clear 7 -13.9 2 -16.4 82 82 ENE 3 6 30.45 1031 10 16.09344 0 0
5:35 am 05:35 Clear 7 -14.1 2 -16.4 83 83 ENE 3 6 30.42 1030 10 16.09344 0 0
5:55 am 05:55 Clear 5 -15.1 1 -17.3 83 83 Calm 30.45 1031 10 16.09344 0 0
6:15 am 06:15 Clear 3 -16 -1 -18.3 83 83 W 3 6 30.48 1032 10 16.09344 0 0
6:35 am 06:35 Clear 3 -16.3 -2 -18.8 81 81 NNW 3 6 30.48 1032 10 16.09344 0 0
6:55 am 06:55 Clear 1 -17.2 -3 -19.7 81 81 NNW 6 9 30.5 1033 10 16.09344 0 0
7:15 am 07:15 Clear 0 -17.8 -4 -20.2 82 82 N 6 9 30.53 1034 10 16.09344 0 0
7:35 am 07:35 Clear -1 -18.1 -5 -20.5 82 82 N 7 11 30.53 1034 10 16.09344 0 0
7:55 am 07:55 Clear 0 -18 -5 -20.5 81 81 Calm 30.53 1034 10 16.09344 0 0
8:15 am 08:15 Sunny 1 -17.4 -4 -19.9 81 81 W 8 13 30.56 1035 10 16.09344 0 0
8:35 am 08:35 Sunny 3 -16 -1 -18.5 81 81 W 8 13 30.53 1034 7 11.265408 0 0
8:55 am 08:55 Sunny 3 -16 -1 -18.4 82 82 WNW 9 15 30.53 1034 10 16.09344 0 0
9:15 am 09:15 Sunny 4 -15.3 0 -17.7 82 82 NNW 8 13 30.56 1035 10 16.09344 0 0
9:35 am 09:35 Sunny 7 -14.1 2 -16.6 82 82 NW 8 13 30.56 1035 10 16.09344 0 0
9:55 am 09:55 Sunny 8 -13.6 3 -16.3 80 80 NW 9 15 30.53 1034 10 16.09344 0 0
10:15 am 10:15 Sunny 9 -12.6 4 -15.6 79 79 NNW 9 15 30.56 1035 10 16.09344 0 0
10:35 am 10:35 Sunny 11 -11.8 5 -15 77 77 NW 9 15 30.56 1035 10 16.09344 0 0
10:55 am 10:55 Sunny 13 -10.7 7 -13.9 78 78 WNW 9 15 30.53 1034 10 16.09344 0 0
11:15 am 11:15 Partly Cloudy 14 -10 8 -13.3 77 77 WNW 9 15 30.56 1035 10 16.09344 0 0
11:35 am 11:35 Partly Cloudy 17 -8.5 10 -12 76 76 NW 9 15 30.56 1035 10 16.09344 0 0
11:55 am 11:55 Partly Cloudy 19 -7.4 12 -11 76 76 NW 5 7 30.5 1033 10 16.09344 0 0
12:15 pm 12:15 Sunny 20 -6.6 13 -10.4 75 75 NW 7 11 30.53 1034 10 16.09344 0 0
12:35 pm 12:35 Sunny 21 -6.1 14 -9.8 75 75 W 7 11 30.5 1033 10 16.09344 0 0
12:55 pm 12:55 Sunny 22 -5.5 15 -9.4 74 74 WNW 7 11 30.5 1033 10 16.09344 0 0
1:15 pm 13:15 Sunny 23 -4.9 16 -9.1 73 73 WNW 7 11 30.48 1032 10 16.09344 0 0
1:35 pm 13:35 Sunny 23 -5 17 -8.6 76 76 WNW 8 13 30.48 1032 10 16.09344 0 0
1:55 pm 13:55 Sunny 24 -4.7 17 -8.2 77 77 WNW 9 15 30.48 1032 10 16.09344 0 0
2:15 pm 14:15 Sunny 24 -4.2 18 -7.8 76 76 WNW 8 13 30.48 1032 10 16.09344 0 0
2:35 pm 14:35 Partly Cloudy 26 -3.5 19 -7.3 75 75 WNW 8 13 30.48 1032 10 16.09344 0 0
2:55 pm 14:55 Sunny 25 -3.7 19 -7.5 75 75 WNW 7 11 30.45 1031 10 16.09344 0 0
3:15 pm 15:15 Sunny 26 -3.6 19 -7.2 76 76 NW 6 9 30.45 1031 10 16.09344 0 0
3:35 pm 15:35 Sunny 25 -4.1 18 -7.6 77 77 W 5 7 30.45 1031 10 16.09344 0 0
3:55 pm 15:55 Sunny 24 -4.5 18 -7.8 78 78 W 3 6 30.45 1031 10 16.09344 0 0
4:15 pm 16:15 Sunny 24 -4.7 18 -8 78 78 NW 3 6 30.45 1031 10 16.09344 0 0
4:35 pm 16:35 Sunny 23 -4.8 18 -7.9 79 79 Calm 30.45 1031 10 16.09344 0 0
4:55 pm 16:55 Sunny 22 -5.5 18 -8 83 83 Calm 30.45 1031 10 16.09344 0 0
5:15 pm 17:15 Sunny 21 -5.9 17 -8.2 84 84 Calm 30.48 1032 10 16.09344 0 0
5:35 pm 17:35 Clear 20 -6.6 17 -8.4 87 87 Calm 30.48 1032 10 16.09344 0 0
5:55 pm 17:55 Clear 22 -5.6 18 -7.9 84 84 Calm 30.48 1032 10 16.09344 0 0
6:15 pm 18:15 Clear 20 -6.5 17 -8.6 85 85 S 6 9 30.48 1032 10 16.09344 0 0
6:35 pm 18:35 Clear 21 -6 17 -8.1 85 85 ESE 3 6 30.48 1032 10 16.09344 0 0
6:55 pm 18:55 Clear 22 -5.6 18 -7.8 85 85 Calm 30.5 1033 10 16.09344 0 0
7:15 pm 19:15 Clear 21 -6.2 17 -8.5 84 84 NE 5 7 30.5 1033 10 16.09344 0 0
7:35 pm 19:35 Clear 20 -6.8 16 -8.9 85 85 ENE 6 9 30.5 1033 10 16.09344 0 0
7:55 pm 19:55 Partly Cloudy 20 -6.5 17 -8.5 86 86 E 3 6 30.5 1033 10 16.09344 0 0
8:15 pm 20:15 Partly Cloudy 21 -6.2 17 -8.3 85 85 Calm 30.5 1033 10 16.09344 0 0
8:35 pm 20:35 Clear 20 -6.5 17 -8.5 86 86 E 6 9 30.5 1033 10 16.09344 0 0
8:55 pm 20:55 Clear 21 -6.3 17 -8.3 86 86 E 5 7 30.5 1033 10 16.09344 0 0
9:15 pm 21:15 Partly Cloudy 22 -5.6 17 -8.2 82 82 ESE 5 7 30.5 1033 10 16.09344 0 0
9:35 pm 21:35 Partly Cloudy 22 -5.6 17 -8.5 80 80 E 3 6 30.48 1032 10 16.09344 0 0
9:55 pm 21:55 Clear 22 -5.5 17 -8.5 80 80 ESE 6 9 30.45 1031 10 16.09344 0 0
10:15 pm 22:15 Clear 22 -5.7 17 -8.6 80 80 ESE 6 9 30.48 1032 10 16.09344 0 0
10:35 pm 22:35 Clear 21 -6 16 -9 80 80 ESE 8 13 30.48 1032 10 16.09344 0 0
10:55 pm 22:55 Clear 21 -6.2 15 -9.2 80 80 ESE 8 13 30.48 1032 10 16.09344 0 0
11:15 pm 23:15 Clear 21 -6.2 15 -9.2 80 80 ESE 8 13 30.45 1031 10 16.09344 0 0
11:35 pm 23:35 Clear 21 -6.3 15 -9.3 80 80 SE 9 15 30.45 1031 10 16.09344 0 0
11:55 pm 23:55 Clear 20 -6.5 15 -9.2 81 81 SE 7 11 30.45 1031 10 16.09344 0 0

Powered by AerisWeather